Tracking 28794 objects as of 19-Apr-2024
HD Live streaming from Space Station
objects crossing your sky now

COSMOS 252 DEB

Track COSMOS 252 DEB now!
10-day predictions


NORAD ID: 18490
Int'l Code: 1968-097EN
Perigee: 524.6 km
Apogee: 1,163.4 km
Inclination: 62.7 °
Period: 101.7 minutes
Semi major axis: 7215 km
RCS: 0.002 m2 (small)
Launch date: November 1, 1968
Source: Commonwealth of Independent States (former USSR) (CIS)
Launch site: TYURATAM MISSILE AND SPACE COMPLEX (TTMTR)

Note: This is SATELLITE DEBRIS
Your satellite tracking list
Your tracking list is empty




NASA's NSSDC Master Catalog

Two Line Element Set (TLE):
1 18490U 68097EN  24110.27418074  .00005131  00000-0  99765-3 0  9992
2 18490  62.7455  11.6422 0442657 215.3604 141.7352 14.16596033600139
Source of the keplerian elements: AFSPC